Seattle, WA
on Monday, March 4, 2013

Monday
Previous Day Next Day
Daily Summary
 ActualAverageRecord
Temperature
Mean Temperature °F 45°F  
Max Temperature 56°F 52°F 68°F (1965)
Min Temperature 32°F 38°F 11°F (1955)
Degree Days
Heating Degree Days 21 20  
Month to date heating degree days 67 80  
Since 1 July heating degree days 3208 3334  
Cooling Degree Days 0 0  
Month to date cooling degree days 0 0  
Year to date cooling degree days 0 0  
Moisture
Dew Point 27°F   
Average Humidity 58    
Maximum Humidity 89    
Minimum Humidity 26    
Precipitation
Precipitation 0.00 in 0.13 in 0.92 in (1979)
Month to date precipitation 0.19 0.52  
Year to date precipitation 5.93 9.59  
Snow
Snow 0.00 in in 1.70 in (1951)
Month to date snowfall 0.0  
Since 1 July snowfall 0.6  
Snow Depth 0.00 in   
Wind
Wind Speed 9 mph   
Max Wind Speed 16 mph   
Max Gust Speed 20 mph   
Visibility 10 miles   
Events     

Key: T is trace of precipitation, MM is missing value
Source: NWS Daily Summary
Time(PST)TemperatureDew PointHumidity Pressure Visibility Wind DirectionWind SpeedGust SpeedPrecipitationEvents Conditions
12:53 AM 37.0°F 30.9°F 79% 30.32 in 10.0 miles ENE 3.5 mph - N/A   Clear
1:53 AM 36.0°F 30.0°F 79% 30.31 in 10.0 miles ENE 3.5 mph - N/A   Clear
2:53 AM 36.0°F 30.9°F 82% 30.29 in 10.0 miles NE 6.9 mph - N/A   Clear
3:53 AM 34.0°F 30.9°F 89% 30.29 in 10.0 miles ENE 4.6 mph - N/A   Clear
4:53 AM 34.0°F 28.9°F 82% 30.28 in 10.0 miles NNE 8.1 mph - N/A   Clear
5:53 AM 33.1°F 28.9°F 85% 30.27 in 10.0 miles NE 8.1 mph - N/A   Mostly Cloudy
6:53 AM 33.1°F 28.0°F 82% 30.25 in 10.0 miles NE 8.1 mph - N/A   Mostly Cloudy
7:53 AM 34.0°F 28.9°F 82% 30.26 in 10.0 miles North 6.9 mph - N/A   Mostly Cloudy
8:53 AM 37.0°F 30.0°F 76% 30.25 in 10.0 miles NE 5.8 mph - N/A   Mostly Cloudy
9:53 AM 41.0°F 30.9°F 67% 30.23 in 10.0 miles North 8.1 mph - N/A   Mostly Cloudy
10:53 AM 46.0°F 30.0°F 54% 30.22 in 10.0 miles North 8.1 mph - N/A   Scattered Clouds
11:53 AM 48.9°F 28.9°F 46% 30.18 in 10.0 miles North 8.1 mph - N/A   Partly Cloudy
12:53 PM 52.0°F 30.0°F 43% 30.14 in 10.0 miles North 12.7 mph - N/A   Scattered Clouds
1:53 PM 54.0°F 28.0°F 37% 30.11 in 10.0 miles North 10.4 mph - N/A   Mostly Cloudy
2:53 PM 54.0°F 33.1°F 45% 30.08 in 10.0 miles WNW 8.1 mph - N/A   Mostly Cloudy
3:53 PM 54.0°F 33.1°F 45% 30.04 in 10.0 miles West 4.6 mph - N/A   Mostly Cloudy
4:53 PM 55.0°F 21.9°F 28% 30.04 in 10.0 miles East 10.4 mph - N/A   Mostly Cloudy
5:53 PM 52.0°F 21.0°F 30% 30.02 in 10.0 miles ENE 12.7 mph - N/A   Mostly Cloudy
6:53 PM 51.1°F 19.9°F 29% 30.01 in 10.0 miles East 12.7 mph - N/A   Mostly Cloudy
7:53 PM 50.0°F 19.9°F 31% 29.99 in 10.0 miles ESE 11.5 mph - N/A   Scattered Clouds
8:53 PM 48.9°F 19.0°F 31% 29.98 in 10.0 miles ESE 10.4 mph - N/A   Scattered Clouds
9:53 PM 48.0°F 19.0°F 32% 29.98 in 10.0 miles ESE 12.7 mph - N/A   Scattered Clouds
11:53 PM 48.0°F 19.9°F 33% 29.94 in 10.0 miles East 12.7 mph - N/A   Overcast
Moon Phase
Mar. 04 Mar. 04 Mar. 11 Mar. 19 Mar. 27
Sunrise:06:43 AM (PST) Moon Rise:01:16 AM (PST)3/4
Sunset:05:59 PM (PST) Moon Set:10:27 AM (PST)3/4

Copyright © 2014 The Weather Underground, Inc.